Flag for United Kingdom Weather past 2 weeks in Derby, England, United Kingdom

Now
52 °F

Passing clouds.


Feels Like: 48 °F
Forecast: 44 / 58 °F
Wind: 10 mph from Southwest

Location: East Midlands

Current Time: May 24, 2015 at 7:30:53 AM

Latest Report: May 24, 2015 at 6:50 AM


Visibility: N/A

Pressure: 30.07 "Hg

Humidity: 94%

Dew point: 50 °F

Location of DerbyLocation

Historic Weather in Derby — Graph

°F

Derby temperature yesterday

Maximum temperature yesterday: 63 °F (at 5:50 PM)
Minimum temperature yesterday: 46 °F (at 4:50 AM)
Average temperature yesterday: 55 °F

Past Weeks' High & Low Weather Summary

 TemperatureHumidityPressure
High68 °F (May 11, 2:50 PM)100% (May 14, 1:20 AM)30.33 "Hg (May 14, 1:20 AM)
Low41 °F (May 20, 3:20 AM)35% (May 11, 2:50 PM)29.47 "Hg (May 19, 2:20 AM)
Average53 °F73%30.05 "Hg
* Reported May 9 6:20 AM — May 24 6:20 AM, Derby, Weather by CustomWeather, © 2015

Note: Actual official high and low records may vary slightly from our data, if they occured in-between our weather recording intervals... More about our weather records

Advertising

Derby weather history for previous 24 hours

 ConditionsComfort  
Time TempWeatherWind HumidityBarometerVisibility
6:20 AM
Sun, May 24
52 °FPartly sunny.9 mph94%30.09 "HgN/A
5:50 AM52 °FClear.10 mph88%30.09 "Hg10 mi
5:20 AM52 °FClear.10 mph88%30.09 "Hg10 mi
4:50 AM52 °FClear.10 mph88%30.09 "Hg10 mi
4:20 AM52 °FClear.9 mph82%30.09 "Hg10 mi
3:50 AM52 °FClear.7 mph82%30.09 "Hg10 mi
3:20 AM52 °FClear.7 mph88%30.09 "Hg10 mi
2:50 AM54 °FClear.8 mph82%30.12 "Hg10 mi
2:20 AM54 °FClear.8 mph88%30.12 "Hg10 mi
1:50 AM54 °FClear.9 mph88%30.15 "Hg10 mi
1:20 AM54 °FClear.7 mph88%30.15 "Hg10 mi
12:50 AM52 °FClear.8 mph94%30.15 "Hg10 mi
12:20 AM54 °FClear.8 mph88%30.18 "Hg10 mi
11:50 PM
Sat, May 23
54 °FClear.8 mph88%30.18 "Hg10 mi
11:20 PM54 °FClear.7 mph88%30.18 "Hg10 mi
10:50 PM55 °FClear.7 mph82%30.18 "Hg10 mi
10:20 PM55 °FClear.6 mph82%30.21 "Hg10 mi
9:50 PM55 °FSunny.6 mph82%30.21 "Hg10 mi
9:20 PM57 °FSunny.6 mph77%30.21 "Hg10 mi
8:50 PM59 °FPassing clouds.6 mph72%30.21 "HgN/A
8:20 PM59 °FPassing clouds.6 mph72%30.21 "HgN/A
7:50 PM61 °FPassing clouds.5 mph68%30.21 "HgN/A
7:20 PM61 °FPassing clouds.6 mph63%30.21 "HgN/A
6:50 PM63 °FPassing clouds.7 mph64%30.21 "HgN/A
6:20 PM63 °FPassing clouds.6 mph64%30.21 "HgN/A
5:50 PM63 °FPassing clouds.6 mph64%30.24 "HgN/A
5:20 PM61 °FScattered clouds.3 mph63%30.24 "HgN/A
4:20 PM61 °FPartly sunny.2 mph68%30.24 "HgN/A
3:50 PM61 °FPartly sunny.3 mph63%30.27 "HgN/A
3:20 PM59 °FPartly sunny.3 mph68%30.27 "HgN/A
2:50 PM61 °FPartly sunny.3 mph63%30.27 "HgN/A
2:20 PM59 °FPartly sunny.5 mph63%30.27 "HgN/A
1:50 PM59 °FPartly sunny.5 mph68%30.27 "HgN/A
1:20 PM57 °FPartly sunny.5 mph72%30.30 "HgN/A
12:50 PM57 °FPartly sunny.6 mph72%30.30 "HgN/A
12:20 PM55 °FPartly sunny.6 mph77%30.30 "HgN/A
11:50 AM55 °FPartly sunny.6 mph77%30.30 "HgN/A
11:20 AM55 °FPartly sunny.7 mph82%30.30 "HgN/A
10:50 AM55 °FPartly sunny.7 mph82%30.30 "HgN/A
10:20 AM54 °FPartly sunny.7 mph88%30.30 "HgN/A
9:50 AM54 °FPartly sunny.7 mph82%30.30 "HgN/A
9:20 AM54 °FPartly sunny.9 mph88%30.30 "HgN/A
8:50 AM54 °FPartly sunny.5 mph88%30.30 "HgN/A
8:20 AM52 °FPartly sunny.3 mph88%30.30 "HgN/A
7:50 AM50 °FPartly sunny.6 mph88%30.27 "HgN/A
7:20 AM50 °FPartly sunny.6 mph88%30.27 "HgN/A
Weather by CustomWeather, © 2015

See weather overviewHow to use our weather pages